TimeEDT,TemperatureF,Dew PointF,Humidity,Sea Level PressureIn,VisibilityMPH,Wind Direction,Wind SpeedMPH,Gust SpeedMPH,PrecipitationIn,Events,Conditions,WindDirDegrees,DateUTC
12:08 AM,75.2,73.4,94,29.90,7.0,East,1.2,-,N/A,,Mostly Cloudy,80,2013-07-22 04:08:00
12:13 AM,75.2,73.4,94,29.90,6.0,South,2.3,-,N/A,,Mostly Cloudy,170,2013-07-22 04:13:00
12:58 AM,75.0,74.5,98,29.92,6.0,SSE,2.3,-,N/A,,Overcast,160,2013-07-22 04:58:00
1:18 AM,75.2,73.4,94,29.91,7.0,SE,5.8,-,N/A,,Mostly Cloudy,140,2013-07-22 05:18:00
1:33 AM,75.2,73.4,94,29.91,10.0,SSE,2.3,-,N/A,,Mostly Cloudy,150,2013-07-22 05:33:00
1:58 AM,74.8,73.9,97,29.91,10.0,South,4.6,-,N/A,,Mostly Cloudy,170,2013-07-22 05:58:00
2:38 AM,75.2,73.4,94,29.90,9.0,NE,1.2,-,N/A,,Overcast,40,2013-07-22 06:38:00
2:58 AM,74.3,73.9,99,29.91,7.0,NNW,3.5,-,N/A,,Overcast,330,2013-07-22 06:58:00
3:08 AM,75.2,73.4,94,29.91,9.0,NNW,1.2,-,N/A,,Overcast,340,2013-07-22 07:08:00
3:58 AM,74.5,73.4,96,29.91,9.0,Calm,Calm,-,N/A,,Mostly Cloudy,0,2013-07-22 07:58:00
4:28 AM,73.4,73.4,100,29.89,5.0,NW,1.2,-,N/A,,Scattered Clouds,320,2013-07-22 08:28:00
4:33 AM,73.4,73.4,100,29.89,5.0,North,1.2,-,N/A,,Scattered Clouds,360,2013-07-22 08:33:00
4:38 AM,73.4,73.4,100,29.89,4.0,North,1.2,-,N/A,,Partly Cloudy,350,2013-07-22 08:38:00
4:58 AM,72.7,72.5,99,29.91,5.0,North,1.2,-,N/A,,Clear,10,2013-07-22 08:58:00
5:03 AM,73.4,71.6,94,29.90,2.5,North,2.3,-,N/A,,Clear,10,2013-07-22 09:03:00
5:08 AM,73.4,71.6,94,29.89,1.0,Calm,Calm,-,N/A,,Clear,0,2013-07-22 09:08:00
5:13 AM,71.6,71.6,100,29.89,1.2,North,1.2,-,N/A,,Clear,10,2013-07-22 09:13:00
5:18 AM,71.6,71.6,100,29.89,1.5,Calm,Calm,-,N/A,,Clear,0,2013-07-22 09:18:00
5:23 AM,71.6,71.6,100,29.89,1.2,Calm,Calm,-,N/A,,Clear,0,2013-07-22 09:23:00
5:28 AM,71.6,71.6,100,29.89,2.0,NNW,2.3,-,N/A,,Clear,330,2013-07-22 09:28:00
5:38 AM,71.6,71.6,100,29.90,2.5,Calm,Calm,-,N/A,,Clear,0,2013-07-22 09:38:00
5:43 AM,71.6,71.6,100,29.90,4.0,Calm,Calm,-,N/A,,Clear,0,2013-07-22 09:43:00
5:58 AM,72.7,72.3,99,29.91,3.0,Calm,Calm,-,N/A,,Scattered Clouds,0,2013-07-22 09:58:00
6:33 AM,73.4,73.4,100,29.90,8.0,Calm,Calm,-,N/A,Rain,Light Rain,0,2013-07-22 10:33:00
6:56 AM,73.4,73.4,100,29.90,5.0,SSE,2.3,-,N/A,,Scattered Clouds,150,2013-07-22 10:56:00
6:58 AM,73.4,73.4,100,29.91,6.0,SSE,2.3,-,0.00,,Scattered Clouds,150,2013-07-22 10:58:00
6:59 AM,73.4,73.4,100,29.90,6.0,SSE,2.3,-,N/A,Rain,Light Rain,160,2013-07-22 10:59:00
7:16 AM,75.2,75.2,100,29.90,9.0,SSE,2.3,-,N/A,,Scattered Clouds,150,2013-07-22 11:16:00
7:40 AM,77.0,75.2,94,29.91,10.0,Calm,Calm,-,N/A,Rain,Light Rain,0,2013-07-22 11:40:00
7:58 AM,77.0,75.6,95,29.92,10.0,Calm,Calm,-,0.00,Rain,Light Rain,0,2013-07-22 11:58:00
8:00 AM,77.0,75.2,94,29.91,10.0,Calm,Calm,-,N/A,,Scattered Clouds,0,2013-07-22 12:00:00
8:04 AM,77.0,75.2,94,29.91,10.0,Calm,Calm,-,N/A,Rain,Light Rain,0,2013-07-22 12:04:00
8:52 AM,78.8,75.2,89,29.91,10.0,SSE,2.3,-,N/A,,Scattered Clouds,150,2013-07-22 12:52:00
8:58 AM,78.1,75.9,93,29.92,10.0,SSE,3.5,-,0.00,,Scattered Clouds,150,2013-07-22 12:58:00
9:58 AM,80.2,77.0,90,29.92,10.0,South,2.3,-,N/A,,Mostly Cloudy,180,2013-07-22 13:58:00
10:58 AM,82.0,76.3,83,29.92,10.0,ESE,4.6,-,N/A,,Mostly Cloudy,120,2013-07-22 14:58:00
11:58 AM,81.9,77.2,86,29.91,10.0,East,4.6,-,N/A,,Mostly Cloudy,90,2013-07-22 15:58:00
12:58 PM,84.7,77.9,80,29.90,10.0,Variable,5.8,-,N/A,,Mostly Cloudy,0,2013-07-22 16:58:00
1:58 PM,82.4,77.5,85,29.88,10.0,Variable,5.8,-,N/A,,Mostly Cloudy,0,2013-07-22 17:58:00
2:18 PM,80.6,77.0,89,29.87,10.0,East,5.8,-,N/A,Rain,Light Rain,90,2013-07-22 18:18:00
2:34 PM,82.4,78.8,89,29.86,10.0,East,5.8,-,N/A,,Mostly Cloudy,90,2013-07-22 18:34:00
2:58 PM,84.2,76.3,77,29.86,10.0,ENE,5.8,-,0.00,,Scattered Clouds,70,2013-07-22 18:58:00
3:58 PM,83.8,75.4,76,29.83,10.0,East,8.1,-,N/A,,Clear,90,2013-07-22 19:58:00
4:34 PM,80.6,75.2,84,29.81,10.0,ESE,6.9,-,N/A,Rain,Light Rain,120,2013-07-22 20:34:00
4:48 PM,80.6,77.0,89,29.81,5.0,ESE,8.1,-,N/A,,Haze,110,2013-07-22 20:48:00
4:58 PM,81.1,75.7,84,29.82,10.0,East,6.9,-,0.00,,Scattered Clouds,100,2013-07-22 20:58:00
5:07 PM,82.4,75.2,79,29.81,10.0,ESE,6.9,-,N/A,Thunderstorm,Thunderstorm,110,2013-07-22 21:07:00
5:45 PM,82.4,77.0,84,29.79,10.0,East,6.9,-,N/A,,Partly Cloudy,100,2013-07-22 21:45:00
5:58 PM,82.6,76.6,82,29.81,10.0,East,6.9,-,N/A,,Clear,100,2013-07-22 21:58:00
6:58 PM,79.7,77.5,93,29.80,10.0,East,3.5,-,N/A,,Scattered Clouds,80,2013-07-22 22:58:00
7:58 PM,78.1,77.5,98,29.79,10.0,SSE,1.2,-,N/A,,Clear,160,2013-07-22 23:58:00
8:58 PM,77.7,77.4,99,29.79,7.0,SE,2.3,-,N/A,,Clear,130,2013-07-23 00:58:00
8:59 PM,77.0,77.0,100,29.78,8.0,SE,2.3,-,N/A,,Light Drizzle,130,2013-07-23 00:59:00
9:08 PM,78.8,77.0,94,29.78,10.0,SE,4.6,-,N/A,,Clear,140,2013-07-23 01:08:00
9:11 PM,78.8,77.0,94,29.79,10.0,SSE,5.8,-,N/A,,Light Drizzle,150,2013-07-23 01:11:00
9:22 PM,78.8,77.0,94,29.79,10.0,SE,5.8,-,N/A,,Scattered Clouds,140,2013-07-23 01:22:00
9:32 PM,78.8,78.8,100,29.78,10.0,SE,5.8,-,N/A,,Mostly Cloudy,140,2013-07-23 01:32:00
9:58 PM,78.4,78.1,99,29.80,10.0,SSE,4.6,-,0.00,,Partly Cloudy,150,2013-07-23 01:58:00
10:08 PM,78.8,77.0,94,29.77,9.0,SSE,4.6,-,N/A,,Clear,160,2013-07-23 02:08:00
10:13 PM,78.8,77.0,94,29.77,10.0,SE,4.6,-,N/A,,Clear,140,2013-07-23 02:13:00
10:58 PM,78.3,77.7,98,29.77,10.0,SSE,5.8,-,N/A,,Partly Cloudy,150,2013-07-23 02:58:00
11:58 PM,78.4,78.3,99,29.77,10.0,SSE,9.2,-,N/A,,Overcast,160,2013-07-23 03:58:00